Year,Month,Day,Hour,Minute,Value (Times are PST for temperature in C)
2014,09,21,00,00,12.70
2014,09,21,00,01,12.70
2014,09,21,00,02,12.70
2014,09,21,00,03,12.70
2014,09,21,00,04,12.70
2014,09,21,00,05,12.60
2014,09,21,00,06,12.60
2014,09,21,00,07,12.60
2014,09,21,00,08,12.60
2014,09,21,00,09,12.60
2014,09,21,00,10,12.60
2014,09,21,00,11,12.60
2014,09,21,00,12,12.50
2014,09,21,00,13,12.50
2014,09,21,00,14,12.50
2014,09,21,00,15,12.40
2014,09,21,00,16,12.40
2014,09,21,00,17,12.40
2014,09,21,00,18,12.40
2014,09,21,00,19,12.40
2014,09,21,00,20,12.40
2014,09,21,00,21,12.30
2014,09,21,00,22,12.30
2014,09,21,00,23,12.30
2014,09,21,00,24,12.30
2014,09,21,00,25,12.30
2014,09,21,00,26,12.30
2014,09,21,00,27,12.30
2014,09,21,00,28,12.20
2014,09,21,00,29,12.20
2014,09,21,00,30,12.20
2014,09,21,00,31,12.20
2014,09,21,00,32,12.20
2014,09,21,00,33,12.20
2014,09,21,00,34,12.10
2014,09,21,00,35,12.10
2014,09,21,00,36,12.10
2014,09,21,00,37,12.10
2014,09,21,00,38,12.10
2014,09,21,00,39,12.10
2014,09,21,00,40,12.10
2014,09,21,00,41,12.10
2014,09,21,00,42,12.00
2014,09,21,00,43,12.10
2014,09,21,00,44,12.00
2014,09,21,00,45,12.00
2014,09,21,00,46,12.00
2014,09,21,00,47,12.00
2014,09,21,00,48,12.00
2014,09,21,00,49,12.00
2014,09,21,00,50,12.00
2014,09,21,00,51,12.00
2014,09,21,00,52,12.00
2014,09,21,00,53,12.00
2014,09,21,00,54,12.00
2014,09,21,00,55,12.00
2014,09,21,00,56,12.00
2014,09,21,00,57,12.00
2014,09,21,00,58,12.00
2014,09,21,00,59,12.00
2014,09,21,01,00,12.00
2014,09,21,01,01,12.00
2014,09,21,01,02,12.00
2014,09,21,01,03,12.00
2014,09,21,01,04,12.00
2014,09,21,01,05,12.00
2014,09,21,01,06,12.00
2014,09,21,01,07,12.00
2014,09,21,01,08,11.90
2014,09,21,01,09,11.90
2014,09,21,01,10,11.90
2014,09,21,01,11,11.90
2014,09,21,01,12,11.90
2014,09,21,01,13,11.90
2014,09,21,01,14,11.90
2014,09,21,01,15,11.90
2014,09,21,01,16,11.90
2014,09,21,01,17,12.00
2014,09,21,01,18,12.00
2014,09,21,01,19,11.90
2014,09,21,01,20,11.90
2014,09,21,01,21,11.90
2014,09,21,01,22,11.90
2014,09,21,01,23,11.90
2014,09,21,01,24,11.90
2014,09,21,01,25,11.90
2014,09,21,01,26,11.90
2014,09,21,01,27,11.90
2014,09,21,01,28,12.00
2014,09,21,01,29,12.00
2014,09,21,01,30,12.00
2014,09,21,01,31,12.00
2014,09,21,01,32,12.00
2014,09,21,01,33,12.00
2014,09,21,01,34,12.00
2014,09,21,01,35,12.10
2014,09,21,01,36,12.10
2014,09,21,01,37,12.10
2014,09,21,01,38,12.10
2014,09,21,01,39,12.20
2014,09,21,01,40,12.30
2014,09,21,01,41,12.50
2014,09,21,01,42,12.60
2014,09,21,01,43,12.80
2014,09,21,01,44,13.00
2014,09,21,01,45,13.10
2014,09,21,01,46,13.30
2014,09,21,01,47,13.40
2014,09,21,01,48,13.50
2014,09,21,01,49,13.60
2014,09,21,01,50,13.70
2014,09,21,01,51,13.80
2014,09,21,01,52,13.80
2014,09,21,01,53,13.90
2014,09,21,01,54,14.00
2014,09,21,01,55,14.00
2014,09,21,01,56,14.10
2014,09,21,01,57,14.20
2014,09,21,01,58,14.30
2014,09,21,01,59,14.30
2014,09,21,02,00,14.40
2014,09,21,02,01,14.40
2014,09,21,02,02,14.50
2014,09,21,02,03,14.50
2014,09,21,02,04,14.60
2014,09,21,02,05,14.60
2014,09,21,02,06,14.60
2014,09,21,02,07,14.70
2014,09,21,02,08,14.70
2014,09,21,02,09,14.70
2014,09,21,02,10,14.70
2014,09,21,02,11,14.70
2014,09,21,02,12,14.70
2014,09,21,02,13,14.70
2014,09,21,02,14,14.70
2014,09,21,02,15,14.70
2014,09,21,02,16,14.70
2014,09,21,02,17,14.70
2014,09,21,02,18,14.70
2014,09,21,02,19,14.70
2014,09,21,02,20,14.50
2014,09,21,02,21,14.40
2014,09,21,02,22,14.20
2014,09,21,02,23,14.00
2014,09,21,02,24,13.70
2014,09,21,02,25,13.60
2014,09,21,02,26,13.40
2014,09,21,02,27,13.30
2014,09,21,02,28,13.20
2014,09,21,02,29,13.10
2014,09,21,02,30,13.00
2014,09,21,02,31,12.90
2014,09,21,02,32,12.90
2014,09,21,02,33,13.00
2014,09,21,02,34,13.00
2014,09,21,02,35,13.10
2014,09,21,02,36,13.10
2014,09,21,02,37,13.10
2014,09,21,02,38,13.10
2014,09,21,02,39,13.00
2014,09,21,02,40,12.90
2014,09,21,02,41,12.80
2014,09,21,02,42,12.70
2014,09,21,02,43,12.70
2014,09,21,02,44,12.60
2014,09,21,02,45,12.60
2014,09,21,02,46,12.60
2014,09,21,02,47,12.60
2014,09,21,02,48,12.60
2014,09,21,02,49,12.50
2014,09,21,02,50,12.50
2014,09,21,02,51,12.40
2014,09,21,02,52,12.40
2014,09,21,02,53,12.30
2014,09,21,02,54,12.30
2014,09,21,02,55,12.30
2014,09,21,02,56,12.20
2014,09,21,02,57,12.20
2014,09,21,02,58,12.20
2014,09,21,02,59,12.10
2014,09,21,03,00,12.10
2014,09,21,03,01,12.10
2014,09,21,03,02,12.00
2014,09,21,03,03,12.00
2014,09,21,03,04,11.90
2014,09,21,03,05,11.90
2014,09,21,03,06,11.90
2014,09,21,03,07,11.90
2014,09,21,03,08,11.90
2014,09,21,03,09,11.80
2014,09,21,03,10,11.80
2014,09,21,03,11,11.80
2014,09,21,03,12,11.80
2014,09,21,03,13,11.70
2014,09,21,03,14,11.70
2014,09,21,03,15,11.70
2014,09,21,03,16,11.70
2014,09,21,03,17,11.70
2014,09,21,03,18,11.70
2014,09,21,03,19,11.70
2014,09,21,03,20,11.70
2014,09,21,03,21,11.70
2014,09,21,03,22,11.70
2014,09,21,03,23,11.70
2014,09,21,03,24,11.70
2014,09,21,03,25,11.70
2014,09,21,03,26,11.70
2014,09,21,03,27,11.60
2014,09,21,03,28,11.60
2014,09,21,03,29,11.60
2014,09,21,03,30,11.60
2014,09,21,03,31,11.60
2014,09,21,03,32,11.70
2014,09,21,03,33,11.70
2014,09,21,03,34,11.70
2014,09,21,03,35,11.70
2014,09,21,03,36,11.70
2014,09,21,03,37,11.70
2014,09,21,03,38,11.70
2014,09,21,03,39,11.70
2014,09,21,03,40,11.70
2014,09,21,03,41,11.70
2014,09,21,03,42,11.80
2014,09,21,03,43,11.80
2014,09,21,03,44,11.90
2014,09,21,03,45,11.90
2014,09,21,03,46,12.00
2014,09,21,03,47,12.00
2014,09,21,03,48,12.10
2014,09,21,03,49,12.00
2014,09,21,03,50,12.10
2014,09,21,03,51,12.00
2014,09,21,03,52,12.00
2014,09,21,03,53,12.00
2014,09,21,03,54,11.90
2014,09,21,03,55,11.90
2014,09,21,03,56,11.90
2014,09,21,03,57,11.90
2014,09,21,03,58,11.80
2014,09,21,03,59,11.80
2014,09,21,04,00,11.90
2014,09,21,04,01,11.90
2014,09,21,04,02,12.10
2014,09,21,04,03,12.20
2014,09,21,04,04,12.40
2014,09,21,04,05,12.50
2014,09,21,04,06,12.50
2014,09,21,04,07,12.60
2014,09,21,04,08,12.50
2014,09,21,04,09,12.50
2014,09,21,04,10,12.50
2014,09,21,04,11,12.40
2014,09,21,04,12,12.30
2014,09,21,04,13,12.30
2014,09,21,04,14,12.20
2014,09,21,04,15,12.20
2014,09,21,04,16,12.20
2014,09,21,04,17,12.20
2014,09,21,04,18,12.30
2014,09,21,04,19,12.50
2014,09,21,04,20,12.60
2014,09,21,04,21,12.80
2014,09,21,04,22,12.90
2014,09,21,04,23,13.00
2014,09,21,04,24,13.10
2014,09,21,04,25,13.10
2014,09,21,04,26,13.10
2014,09,21,04,27,13.00
2014,09,21,04,28,12.90
2014,09,21,04,29,12.80
2014,09,21,04,30,12.70
2014,09,21,04,31,12.60
2014,09,21,04,32,12.60
2014,09,21,04,33,12.50
2014,09,21,04,34,12.50
2014,09,21,04,35,12.60
2014,09,21,04,36,12.60
2014,09,21,04,37,12.60
2014,09,21,04,38,12.70
2014,09,21,04,39,12.70
2014,09,21,04,40,12.70
2014,09,21,04,41,12.60
2014,09,21,04,42,12.60
2014,09,21,04,43,12.60
2014,09,21,04,44,12.60
2014,09,21,04,45,12.60
2014,09,21,04,46,12.50
2014,09,21,04,47,12.50
2014,09,21,04,48,12.50
2014,09,21,04,49,12.40
2014,09,21,04,50,12.40
2014,09,21,04,51,12.40
2014,09,21,04,52,12.30
2014,09,21,04,53,12.30
2014,09,21,04,54,12.20
2014,09,21,04,55,12.20
2014,09,21,04,56,12.20
2014,09,21,04,57,12.10
2014,09,21,04,58,12.10
2014,09,21,04,59,12.10
2014,09,21,05,00,12.00
2014,09,21,05,01,12.00
2014,09,21,05,02,11.90
2014,09,21,05,03,11.90
2014,09,21,05,04,11.90
2014,09,21,05,05,11.90
2014,09,21,05,06,11.80
2014,09,21,05,07,11.80
2014,09,21,05,08,11.80
2014,09,21,05,09,11.80
2014,09,21,05,10,11.70
2014,09,21,05,11,11.70
2014,09,21,05,12,11.70
2014,09,21,05,13,11.60
2014,09,21,05,14,11.60
2014,09,21,05,15,11.60
2014,09,21,05,16,11.60
2014,09,21,05,17,11.60
2014,09,21,05,18,11.60
2014,09,21,05,19,11.60
2014,09,21,05,20,11.60
2014,09,21,05,21,11.60
2014,09,21,05,22,11.60
2014,09,21,05,23,11.60
2014,09,21,05,24,11.60
2014,09,21,05,25,11.60
2014,09,21,05,26,11.60
2014,09,21,05,27,11.60
2014,09,21,05,28,11.50
2014,09,21,05,29,11.60
2014,09,21,05,30,11.50
2014,09,21,05,31,11.60
2014,09,21,05,32,11.50
2014,09,21,05,33,11.50
2014,09,21,05,34,11.50
2014,09,21,05,35,11.50
2014,09,21,05,36,11.40
2014,09,21,05,37,11.40
2014,09,21,05,38,11.40
2014,09,21,05,39,11.40
2014,09,21,05,40,11.40
2014,09,21,05,41,11.40
2014,09,21,05,42,11.40
2014,09,21,05,43,11.30
2014,09,21,05,44,11.30
2014,09,21,05,45,11.30
2014,09,21,05,46,11.30
2014,09,21,05,47,11.30
2014,09,21,05,48,11.30
2014,09,21,05,49,11.30
2014,09,21,05,50,11.20
2014,09,21,05,51,11.20
2014,09,21,05,52,11.20
2014,09,21,05,53,11.20
2014,09,21,05,54,11.20
2014,09,21,05,55,11.20
2014,09,21,05,56,11.20
2014,09,21,05,57,11.20
2014,09,21,05,58,11.10
2014,09,21,05,59,11.10
2014,09,21,06,00,11.10
2014,09,21,06,01,11.10
2014,09,21,06,02,11.10
2014,09,21,06,03,11.10
2014,09,21,06,04,11.10
2014,09,21,06,05,11.10
2014,09,21,06,06,11.10
2014,09,21,06,07,11.10
2014,09,21,06,08,11.10
2014,09,21,06,09,11.10
2014,09,21,06,10,11.10
2014,09,21,06,11,11.10
2014,09,21,06,12,11.10
2014,09,21,06,13,11.10
2014,09,21,06,14,11.10
2014,09,21,06,15,11.10
2014,09,21,06,16,11.20
2014,09,21,06,17,11.20
2014,09,21,06,18,11.30
2014,09,21,06,19,11.40
2014,09,21,06,20,11.40
2014,09,21,06,21,11.50
2014,09,21,06,22,11.50
2014,09,21,06,23,11.60
2014,09,21,06,24,11.60
2014,09,21,06,25,11.50
2014,09,21,06,26,11.50
2014,09,21,06,27,11.40
2014,09,21,06,28,11.30
2014,09,21,06,29,11.30
2014,09,21,06,30,11.30
2014,09,21,06,31,11.20
2014,09,21,06,32,11.20
2014,09,21,06,33,11.20
2014,09,21,06,34,11.10
2014,09,21,06,35,11.10
2014,09,21,06,36,11.10
2014,09,21,06,37,11.00
2014,09,21,06,38,11.00
2014,09,21,06,39,10.90
2014,09,21,06,40,10.90
2014,09,21,06,41,10.90
2014,09,21,06,42,10.90
2014,09,21,06,43,10.90
2014,09,21,06,44,10.90
2014,09,21,06,45,10.90
2014,09,21,06,46,10.80
2014,09,21,06,47,10.80
2014,09,21,06,48,10.80
2014,09,21,06,49,10.80
2014,09,21,06,50,10.80
2014,09,21,06,51,10.80
2014,09,21,06,52,10.80
2014,09,21,06,53,10.80
2014,09,21,06,54,10.80
2014,09,21,06,55,10.80
2014,09,21,06,56,10.80
2014,09,21,06,57,10.80
2014,09,21,06,58,10.80
2014,09,21,06,59,10.80
2014,09,21,07,00,10.80
2014,09,21,07,01,10.80
2014,09,21,07,02,10.70
2014,09,21,07,03,10.70
2014,09,21,07,04,10.70
2014,09,21,07,05,10.70
2014,09,21,07,06,10.70
2014,09,21,07,07,10.70
2014,09,21,07,08,10.70
2014,09,21,07,09,10.70
2014,09,21,07,10,10.70
2014,09,21,07,11,10.70
2014,09,21,07,12,10.70
2014,09,21,07,13,10.70
2014,09,21,07,14,10.70
2014,09,21,07,15,10.60
2014,09,21,07,16,10.60
2014,09,21,07,17,10.60
2014,09,21,07,18,10.60
2014,09,21,07,19,10.60
2014,09,21,07,20,10.60
2014,09,21,07,21,10.60
2014,09,21,07,22,10.60
2014,09,21,07,23,10.60
2014,09,21,07,24,10.60
2014,09,21,07,25,10.70
2014,09,21,07,26,10.70
2014,09,21,07,27,10.70
2014,09,21,07,28,10.70
2014,09,21,07,29,10.70
2014,09,21,07,30,10.70
2014,09,21,07,31,10.70
2014,09,21,07,32,10.70
2014,09,21,07,33,10.70
2014,09,21,07,34,10.70
2014,09,21,07,35,10.70
2014,09,21,07,36,10.70
2014,09,21,07,37,10.70
2014,09,21,07,38,10.70
2014,09,21,07,39,10.70
2014,09,21,07,40,10.70
2014,09,21,07,41,10.70
2014,09,21,07,42,10.70
2014,09,21,07,43,10.70
2014,09,21,07,44,10.70
2014,09,21,07,45,10.70
2014,09,21,07,46,10.80
2014,09,21,07,47,10.80
2014,09,21,07,48,10.80
2014,09,21,07,49,10.80
2014,09,21,07,50,10.80
2014,09,21,07,51,10.80
2014,09,21,07,52,10.80
2014,09,21,07,53,10.80
2014,09,21,07,54,10.80
2014,09,21,07,55,10.80
2014,09,21,07,56,10.80
2014,09,21,07,57,10.90
2014,09,21,07,58,10.90
2014,09,21,07,59,10.90
2014,09,21,08,00,10.90
2014,09,21,08,01,10.90
2014,09,21,08,02,10.90
2014,09,21,08,03,10.90
2014,09,21,08,04,11.00
2014,09,21,08,05,11.00
2014,09,21,08,06,11.00
2014,09,21,08,07,11.00
2014,09,21,08,08,11.00
2014,09,21,08,09,11.00
2014,09,21,08,10,11.10
2014,09,21,08,11,11.10
2014,09,21,08,12,11.10
2014,09,21,08,13,11.10
2014,09,21,08,14,11.20
2014,09,21,08,15,11.20
2014,09,21,08,16,11.20
2014,09,21,08,17,11.30
2014,09,21,08,18,11.30
2014,09,21,08,19,11.40
2014,09,21,08,20,11.40
2014,09,21,08,21,11.40
2014,09,21,08,22,11.50
2014,09,21,08,23,11.50
2014,09,21,08,24,11.60
2014,09,21,08,25,11.60
2014,09,21,08,26,11.60
2014,09,21,08,27,11.60
2014,09,21,08,28,11.60
2014,09,21,08,29,11.70
2014,09,21,08,30,11.70
2014,09,21,08,31,11.70
2014,09,21,08,32,11.70
2014,09,21,08,33,11.70
2014,09,21,08,34,11.80
2014,09,21,08,35,11.80
2014,09,21,08,36,11.80
2014,09,21,08,37,11.90
2014,09,21,08,38,11.90
2014,09,21,08,39,11.90
2014,09,21,08,40,12.00
2014,09,21,08,41,12.00
2014,09,21,08,42,12.10
2014,09,21,08,43,12.10
2014,09,21,08,44,12.20
2014,09,21,08,45,12.20
2014,09,21,08,46,12.30
2014,09,21,08,47,12.30
2014,09,21,08,48,12.40
2014,09,21,08,49,12.50
2014,09,21,08,50,12.60
2014,09,21,08,51,12.70
2014,09,21,08,52,12.80
2014,09,21,08,53,12.90
2014,09,21,08,54,13.00
2014,09,21,08,55,13.10
2014,09,21,08,56,13.20
2014,09,21,08,57,13.30
2014,09,21,08,58,13.40
2014,09,21,08,59,13.50
2014,09,21,09,00,13.50
2014,09,21,09,01,13.60
2014,09,21,09,02,13.60
2014,09,21,09,03,13.70
2014,09,21,09,04,13.80
2014,09,21,09,05,13.80
2014,09,21,09,06,13.90
2014,09,21,09,07,14.00
2014,09,21,09,08,14.10
2014,09,21,09,09,14.20
2014,09,21,09,10,14.30
2014,09,21,09,11,14.40
2014,09,21,09,12,14.50
2014,09,21,09,13,14.60
2014,09,21,09,14,14.80
2014,09,21,09,15,14.90
2014,09,21,09,16,15.00
2014,09,21,09,17,15.20
2014,09,21,09,18,15.30
2014,09,21,09,19,15.40
2014,09,21,09,20,15.60
2014,09,21,09,21,15.70
2014,09,21,09,22,15.80
2014,09,21,09,23,15.90
2014,09,21,09,24,16.00
2014,09,21,09,25,16.20
2014,09,21,09,26,16.30
2014,09,21,09,27,16.40
2014,09,21,09,28,16.50
2014,09,21,09,29,16.60
2014,09,21,09,30,16.80
2014,09,21,09,31,16.90
2014,09,21,09,32,17.00
2014,09,21,09,33,17.10
2014,09,21,09,34,17.20
2014,09,21,09,35,17.30
2014,09,21,09,36,17.40
2014,09,21,09,37,17.50
2014,09,21,09,38,17.60
2014,09,21,09,39,17.70
2014,09,21,09,40,17.80
2014,09,21,09,41,17.90
2014,09,21,09,42,18.00
2014,09,21,09,43,18.10
2014,09,21,09,44,18.20
2014,09,21,09,45,18.20
2014,09,21,09,46,18.30
2014,09,21,09,47,18.30
2014,09,21,09,48,18.40
2014,09,21,09,49,18.50
2014,09,21,09,50,18.60
2014,09,21,09,51,18.70
2014,09,21,09,52,18.80
2014,09,21,09,53,18.80
2014,09,21,09,54,18.90
2014,09,21,09,55,18.90
2014,09,21,09,56,19.00
2014,09,21,09,57,19.00
2014,09,21,09,58,19.00
2014,09,21,09,59,19.10
2014,09,21,10,00,19.10
2014,09,21,10,01,19.10
2014,09,21,10,02,19.10
2014,09,21,10,03,19.00
2014,09,21,10,04,19.10
2014,09,21,10,05,19.10
2014,09,21,10,06,19.10
2014,09,21,10,07,19.20
2014,09,21,10,08,19.20
2014,09,21,10,09,19.30
2014,09,21,10,10,19.30
2014,09,21,10,11,19.40
2014,09,21,10,12,19.50
2014,09,21,10,13,19.50
2014,09,21,10,14,19.60
2014,09,21,10,15,19.70
2014,09,21,10,16,19.70
2014,09,21,10,17,19.80
2014,09,21,10,18,19.90
2014,09,21,10,19,20.00
2014,09,21,10,20,20.10
2014,09,21,10,21,20.20
2014,09,21,10,22,20.30
2014,09,21,10,23,20.40
2014,09,21,10,24,20.40
2014,09,21,10,25,20.50
2014,09,21,10,26,20.60
2014,09,21,10,27,20.70
2014,09,21,10,28,20.70
2014,09,21,10,29,20.80
2014,09,21,10,30,20.90
2014,09,21,10,31,20.90
2014,09,21,10,32,21.00
2014,09,21,10,33,21.10
2014,09,21,10,34,21.20
2014,09,21,10,35,21.30
2014,09,21,10,36,21.30
2014,09,21,10,37,21.40
2014,09,21,10,38,21.50
2014,09,21,10,39,21.50
2014,09,21,10,40,21.60
2014,09,21,10,41,21.70
2014,09,21,10,42,21.70
2014,09,21,10,43,21.80
2014,09,21,10,44,21.80
2014,09,21,10,45,21.90
2014,09,21,10,46,21.90
2014,09,21,10,47,22.00
2014,09,21,10,48,22.10
2014,09,21,10,49,22.10
2014,09,21,10,50,22.20
2014,09,21,10,51,22.20
2014,09,21,10,52,22.20
2014,09,21,10,53,22.30
2014,09,21,10,54,22.40
2014,09,21,10,55,22.40
2014,09,21,10,56,22.40
2014,09,21,10,57,22.40
2014,09,21,10,58,22.50
2014,09,21,10,59,22.50
2014,09,21,11,00,22.60
2014,09,21,11,01,22.60
2014,09,21,11,02,22.70
2014,09,21,11,03,22.80
2014,09,21,11,04,22.80
2014,09,21,11,05,22.90
2014,09,21,11,06,22.90
2014,09,21,11,07,22.90
2014,09,21,11,08,23.00
2014,09,21,11,09,23.00
2014,09,21,11,10,23.10
2014,09,21,11,11,23.10
2014,09,21,11,12,23.10
2014,09,21,11,13,23.10
2014,09,21,11,14,23.00
2014,09,21,11,15,23.00
2014,09,21,11,16,22.90
2014,09,21,11,17,23.00
2014,09,21,11,18,23.00
2014,09,21,11,19,23.00
2014,09,21,11,20,23.00
2014,09,21,11,21,23.00
2014,09,21,11,22,22.90
2014,09,21,11,23,22.70
2014,09,21,11,24,22.60
2014,09,21,11,25,22.60
2014,09,21,11,26,22.50
2014,09,21,11,27,22.40
2014,09,21,11,28,22.40
2014,09,21,11,29,22.40
2014,09,21,11,30,22.30
2014,09,21,11,31,22.40
2014,09,21,11,32,22.40
2014,09,21,11,33,22.50
2014,09,21,11,34,22.60
2014,09,21,11,35,22.70
2014,09,21,11,36,22.70
2014,09,21,11,37,22.80
2014,09,21,11,38,22.80
2014,09,21,11,39,22.70
2014,09,21,11,40,22.70
2014,09,21,11,41,22.70
2014,09,21,11,42,22.80
2014,09,21,11,43,22.80
2014,09,21,11,44,22.80
2014,09,21,11,45,22.70
2014,09,21,11,46,22.70
2014,09,21,11,47,22.60
2014,09,21,11,48,22.70
2014,09,21,11,49,22.70
2014,09,21,11,50,22.80
2014,09,21,11,51,22.90
2014,09,21,11,52,22.90
2014,09,21,11,53,22.90
2014,09,21,11,54,22.80
2014,09,21,11,55,22.80
2014,09,21,11,56,22.80
2014,09,21,11,57,22.70
2014,09,21,11,58,22.60
2014,09,21,11,59,22.50
2014,09,21,12,00,22.50
2014,09,21,12,01,22.40
2014,09,21,12,02,22.40
2014,09,21,12,03,22.30
2014,09,21,12,04,22.30
2014,09,21,12,05,22.30
2014,09,21,12,06,22.20
2014,09,21,12,07,22.20
2014,09,21,12,08,22.20
2014,09,21,12,09,22.20
2014,09,21,12,10,22.20
2014,09,21,12,11,22.20
2014,09,21,12,12,22.20
2014,09,21,12,13,22.30
2014,09,21,12,14,22.30
2014,09,21,12,15,22.40
2014,09,21,12,16,22.50
2014,09,21,12,17,22.60
2014,09,21,12,18,22.70
2014,09,21,12,19,22.70
2014,09,21,12,20,22.80
2014,09,21,12,21,22.80
2014,09,21,12,22,22.80
2014,09,21,12,23,22.70
2014,09,21,12,24,22.70
2014,09,21,12,25,22.60
2014,09,21,12,26,22.60
2014,09,21,12,27,22.50
2014,09,21,12,28,22.50
2014,09,21,12,29,22.40
2014,09,21,12,30,22.40
2014,09,21,12,31,22.60
2014,09,21,12,32,22.70
2014,09,21,12,33,22.70
2014,09,21,12,34,22.70
2014,09,21,12,35,22.80
2014,09,21,12,36,22.90
2014,09,21,12,37,22.90
2014,09,21,12,38,22.80
2014,09,21,12,39,22.80
2014,09,21,12,40,22.80
2014,09,21,12,41,22.70
2014,09,21,12,42,22.70
2014,09,21,12,43,22.70
2014,09,21,12,44,22.70
2014,09,21,12,45,22.70
2014,09,21,12,46,22.70
2014,09,21,12,47,22.70
2014,09,21,12,48,22.70
2014,09,21,12,49,22.70
2014,09,21,12,50,22.70
2014,09,21,12,51,22.80
2014,09,21,12,52,22.90
2014,09,21,12,53,22.90
2014,09,21,12,54,22.90
2014,09,21,12,55,22.90
2014,09,21,12,56,22.90
2014,09,21,12,57,22.90
2014,09,21,12,58,22.80
2014,09,21,12,59,22.80
2014,09,21,13,00,22.90
2014,09,21,13,01,22.90
2014,09,21,13,02,22.90
2014,09,21,13,03,23.00
2014,09,21,13,04,23.00
2014,09,21,13,05,23.10
2014,09,21,13,06,23.10
2014,09,21,13,07,23.10
2014,09,21,13,08,23.20
2014,09,21,13,09,23.20
2014,09,21,13,10,23.20
2014,09,21,13,11,23.30
2014,09,21,13,12,23.40
2014,09,21,13,13,23.50
2014,09,21,13,14,23.60
2014,09,21,13,15,23.70
2014,09,21,13,16,23.70
2014,09,21,13,17,23.80
2014,09,21,13,18,23.70
2014,09,21,13,19,23.80
2014,09,21,13,20,23.80
2014,09,21,13,21,23.70
2014,09,21,13,22,23.70
2014,09,21,13,23,23.80
2014,09,21,13,24,23.90
2014,09,21,13,25,23.90
2014,09,21,13,26,23.90
2014,09,21,13,27,24.00
2014,09,21,13,28,24.00
2014,09,21,13,29,24.10
2014,09,21,13,30,24.10
2014,09,21,13,31,24.10
2014,09,21,13,32,24.00
2014,09,21,13,33,23.80
2014,09,21,13,34,23.70
2014,09,21,13,35,23.70
2014,09,21,13,36,23.60
2014,09,21,13,37,23.60
2014,09,21,13,38,23.60
2014,09,21,13,39,23.60
2014,09,21,13,40,23.60
2014,09,21,13,41,23.70
2014,09,21,13,42,23.70
2014,09,21,13,43,23.80
2014,09,21,13,44,23.80
2014,09,21,13,45,23.80
2014,09,21,13,46,23.80
2014,09,21,13,47,23.80
2014,09,21,13,48,23.80
2014,09,21,13,49,24.00
2014,09,21,13,50,24.10
2014,09,21,13,51,24.20
2014,09,21,13,52,24.20
2014,09,21,13,53,24.20
2014,09,21,13,54,24.30
2014,09,21,13,55,24.30
2014,09,21,13,56,24.40
2014,09,21,13,57,24.40
2014,09,21,13,58,24.50
2014,09,21,13,59,24.50
2014,09,21,14,00,24.50
2014,09,21,14,01,24.40
2014,09,21,14,02,24.40
2014,09,21,14,03,24.40
2014,09,21,14,04,24.40
2014,09,21,14,05,24.40
2014,09,21,14,06,24.30
2014,09,21,14,07,24.30
2014,09,21,14,08,24.20
2014,09,21,14,09,24.10
2014,09,21,14,10,24.10
2014,09,21,14,11,24.10
2014,09,21,14,12,24.10
2014,09,21,14,13,24.00
2014,09,21,14,14,23.90
2014,09,21,14,15,23.80
2014,09,21,14,16,23.80
2014,09,21,14,17,23.70
2014,09,21,14,18,23.70
2014,09,21,14,19,23.70
2014,09,21,14,20,23.70
2014,09,21,14,21,23.60
2014,09,21,14,22,23.60
2014,09,21,14,23,23.50
2014,09,21,14,24,23.50
2014,09,21,14,25,23.60
2014,09,21,14,26,23.60
2014,09,21,14,27,23.60
2014,09,21,14,28,23.70
2014,09,21,14,29,23.70
2014,09,21,14,30,23.80
2014,09,21,14,31,23.90
2014,09,21,14,32,23.90
2014,09,21,14,33,24.00
2014,09,21,14,34,24.00
2014,09,21,14,35,24.10
2014,09,21,14,36,24.20
2014,09,21,14,37,24.20
2014,09,21,14,38,24.20
2014,09,21,14,39,24.20
2014,09,21,14,40,24.20
2014,09,21,14,41,24.20
2014,09,21,14,42,24.20
2014,09,21,14,43,24.10
2014,09,21,14,44,24.20
2014,09,21,14,45,24.20
2014,09,21,14,46,24.20
2014,09,21,14,47,24.20
2014,09,21,14,48,24.20
2014,09,21,14,49,24.10
2014,09,21,14,50,24.10
2014,09,21,14,51,24.10
2014,09,21,14,52,24.00
2014,09,21,14,53,24.00
2014,09,21,14,54,24.00
2014,09,21,14,55,24.00
2014,09,21,14,56,24.10
2014,09,21,14,57,24.20
2014,09,21,14,58,24.20
2014,09,21,14,59,24.20
2014,09,21,15,00,24.30
2014,09,21,15,01,24.40
2014,09,21,15,02,24.40
2014,09,21,15,03,24.40
2014,09,21,15,04,24.40
2014,09,21,15,05,24.40
2014,09,21,15,06,24.50
2014,09,21,15,07,24.50
2014,09,21,15,08,24.50
2014,09,21,15,09,24.40
2014,09,21,15,10,24.40
2014,09,21,15,11,24.50
2014,09,21,15,12,24.50
2014,09,21,15,13,24.50
2014,09,21,15,14,24.40
2014,09,21,15,15,24.40
2014,09,21,15,16,24.30
2014,09,21,15,17,24.30
2014,09,21,15,18,24.30
2014,09,21,15,19,24.10
2014,09,21,15,20,24.00
2014,09,21,15,21,24.00
2014,09,21,15,22,24.00
2014,09,21,15,23,23.90
2014,09,21,15,24,23.90
2014,09,21,15,25,23.90
2014,09,21,15,26,23.90
2014,09,21,15,27,23.90
2014,09,21,15,28,24.00
2014,09,21,15,29,24.10
2014,09,21,15,30,24.20
2014,09,21,15,31,24.30
2014,09,21,15,32,24.40
2014,09,21,15,33,24.30
2014,09,21,15,34,24.30
2014,09,21,15,35,24.30
2014,09,21,15,36,24.30
2014,09,21,15,37,24.20
2014,09,21,15,38,24.20
2014,09,21,15,39,24.20
2014,09,21,15,40,24.30
2014,09,21,15,41,24.30
2014,09,21,15,42,24.20
2014,09,21,15,43,24.20
2014,09,21,15,44,24.20
2014,09,21,15,45,24.20
2014,09,21,15,46,24.30
2014,09,21,15,47,24.30
2014,09,21,15,48,24.30
2014,09,21,15,49,24.30
2014,09,21,15,50,24.30
2014,09,21,15,51,24.30
2014,09,21,15,52,24.20
2014,09,21,15,53,24.20
2014,09,21,15,54,24.20
2014,09,21,15,55,24.10
2014,09,21,15,56,24.10
2014,09,21,15,57,24.20
2014,09,21,15,58,24.20
2014,09,21,15,59,24.10
2014,09,21,16,00,24.10
2014,09,21,16,01,24.10
2014,09,21,16,02,24.10
2014,09,21,16,03,24.10
2014,09,21,16,04,24.10
2014,09,21,16,05,24.10
2014,09,21,16,06,24.20
2014,09,21,16,07,24.20
2014,09,21,16,08,24.10
2014,09,21,16,09,24.10
2014,09,21,16,10,24.10
2014,09,21,16,11,24.10
2014,09,21,16,12,24.10
2014,09,21,16,13,24.10
2014,09,21,16,14,24.00
2014,09,21,16,15,24.00
2014,09,21,16,16,24.00
2014,09,21,16,17,23.90
2014,09,21,16,18,23.80
2014,09,21,16,19,23.80
2014,09,21,16,20,23.80
2014,09,21,16,21,23.80
2014,09,21,16,22,23.70
2014,09,21,16,23,23.70
2014,09,21,16,24,23.60
2014,09,21,16,25,23.50
2014,09,21,16,26,23.40
2014,09,21,16,27,23.30
2014,09,21,16,28,23.30
2014,09,21,16,29,23.20
2014,09,21,16,30,23.20
2014,09,21,16,31,23.10
2014,09,21,16,32,23.00
2014,09,21,16,33,22.90
2014,09,21,16,34,22.90
2014,09,21,16,35,22.90
2014,09,21,16,36,22.90
2014,09,21,16,37,23.00
2014,09,21,16,38,22.90
2014,09,21,16,39,22.90
2014,09,21,16,40,22.90
2014,09,21,16,41,22.80
2014,09,21,16,42,22.80
2014,09,21,16,43,22.80
2014,09,21,16,44,22.70
2014,09,21,16,45,22.60
2014,09,21,16,46,22.50
2014,09,21,16,47,22.40
2014,09,21,16,48,22.40
2014,09,21,16,49,22.40
2014,09,21,16,50,22.40
2014,09,21,16,51,22.30
2014,09,21,16,52,22.30
2014,09,21,16,53,22.20
2014,09,21,16,54,22.20
2014,09,21,16,55,22.20
2014,09,21,16,56,22.20
2014,09,21,16,57,22.20
2014,09,21,16,58,22.20
2014,09,21,16,59,22.20
2014,09,21,17,00,22.10
2014,09,21,17,01,22.00
2014,09,21,17,02,22.00
2014,09,21,17,03,21.90
2014,09,21,17,04,21.90
2014,09,21,17,05,21.90
2014,09,21,17,06,21.90
2014,09,21,17,07,21.80
2014,09,21,17,08,21.80
2014,09,21,17,09,21.80
2014,09,21,17,10,21.80
2014,09,21,17,11,21.80
2014,09,21,17,12,21.80
2014,09,21,17,13,21.80
2014,09,21,17,14,21.70
2014,09,21,17,15,21.60
2014,09,21,17,16,21.60
2014,09,21,17,17,21.50
2014,09,21,17,18,21.50
2014,09,21,17,19,21.50